KH2PM Weather Reports


Display with metric or nautical units.
time (UTC)temp
F
wind
direction
speed
MPH
gust
MPH
rain 1hr
in
rain 24hr
in
rain mn
in
humidity
%
barometer
mb
20260906111504 74 81 1.0 3.0 0.00 0.03 0.00 95 1011.6
20260906111004 74 357 2.0 6.0 0.00 0.03 0.00 95 1011.6
20260906110504 74 23 3.0 5.0 0.00 0.03 0.00 95 1011.4
20260906110004 74 40 0.0 3.0 0.00 0.03 0.00 95 1011.4
20260906105504 74 16 1.0 3.0 0.00 0.03 0.00 95 1011.3
20260906104504 74 0 2.0 3.0 0.00 0.03 0.00 95 1011.3
20260906104004 74 358 1.0 3.0 0.00 0.03 0.00 95 1011.2
20260906103503 74 63 2.0 3.0 0.00 0.03 0.00 95 1011.1
20260906103003 74 63 1.0 3.0 0.00 0.03 0.00 95 1011.2
20260906102504 74 355 0.0 0.0 0.00 0.03 0.00 95 1011.1
20260906102004 74 355 0.0 2.0 0.00 0.03 0.00 95 1011.2
20260906101503 74 343 1.0 2.0 0.00 0.03 0.00 96 1011.2
20260906100504 74 49 0.0 0.0 0.00 0.03 0.00 96 1011.0
20260906100004 74 49 0.0 1.0 0.00 0.03 0.00 96 1010.9
20260906095504 74 49 0.0 1.0 0.00 0.03 0.00 96 1010.8
20260906095003 74 49 0.0 1.0 0.00 0.03 0.00 96 1010.9
20260906094504 74 49 0.0 0.0 0.00 0.03 0.00 96 1010.7
20260906094003 73 49 0.0 0.0 0.00 0.03 0.00 96 1010.7
20260906093503 73 49 0.0 0.0 0.00 0.03 0.00 96 1010.7
20260906091504 73 36 0.0 0.0 0.00 0.03 0.00 96 1010.5
20260906091010 73 36 0.0 0.0 0.00 0.03 0.00 96 1010.4
20260906081004 71 20 0.0 0.0 0.00 0.03 0.00 95 1009.9
20260906080504 71 20 0.0 0.0 0.00 0.03 0.00 95 1009.8
20260906080004 71 20 0.0 0.0 0.00 0.03 0.00 94 1009.7
20260906073504 71 20 0.0 0.0 0.00 0.03 0.00 95 1009.6
20260906071504 71 20 0.0 0.0 0.00 0.03 0.00 95 1009.7
20260906071004 71 13 0.0 0.0 0.00 0.03 0.00 94 1009.7
20260906070503 71 13 0.0 0.0 0.00 0.03 0.00 94 1009.7
20260906065004 71 13 0.0 0.0 0.00 0.03 0.00 94 1009.8
20260906064504 71 13 0.0 0.0 0.00 0.03 0.00 94 1009.9
20260906064004 72 13 0.0 0.0 0.00 0.03 0.00 94 1009.9
20260906063503 72 13 0.0 0.0 0.00 0.03 0.00 94 1009.9
20260906063004 72 13 0.0 0.0 0.00 0.03 0.00 95 1009.8
20260906062504 72 13 0.0 0.0 0.00 0.03 0.00 95 1009.8
20260906062004 72 13 0.0 0.0 0.00 0.03 0.00 95 1009.9
20260906061504 72 13 0.0 0.0 0.00 0.03 0.00 95 1010.0
20260906060504 72 13 0.0 0.0 0.00 0.03 0.00 94 1010.2
20260906060004 71 13 0.0 0.0 0.00 0.03 0.00 94 1010.3
20260906055504 72 13 0.0 0.0 0.00 0.03 0.00 94 1010.4
20260906055004 72 13 0.0 0.0 0.00 0.03 0.00 94 1010.4
20260906054504 72 13 0.0 0.0 0.00 0.03 0.00 94 1010.5
20260906053504 72 13 0.0 0.0 0.00 0.03 0.00 93 1010.5
20260906052504 72 13 0.0 0.0 0.00 0.03 0.00 94 1010.6
20260906052004 72 13 0.0 0.0 0.00 0.03 0.00 94 1010.7
20260906051504 72 13 0.0 0.0 0.00 0.03 0.00 94 1010.7
20260906051003 72 13 0.0 0.0 0.00 0.03 0.00 94 1010.9
20260906050504 72 13 0.0 0.0 0.00 0.03 0.00 94 1010.9
20260906050004 72 13 0.0 0.0 0.00 0.03 0.00 93 1010.9
20260906045507 73 13 0.0 1.0 0.00 0.03 0.00 93 1010.8
20260906044504 73 13 0.0 1.0 0.00 0.03 0.00 94 1010.9
20260906044004 73 13 0.0 0.0 0.00 0.03 0.00 93 1011.1
20260906043503 73 13 0.0 1.0 0.00 0.03 0.00 94 1011.1
20260906043003 73 20 1.0 2.0 0.00 0.03 0.00 94 1011.0
20260906042504 73 191 0.0 0.0 0.00 0.03 0.00 94 1011.1
20260906042004 73 191 0.0 0.0 0.00 0.03 0.00 94 1011.1
20260906041504 73 191 0.0 0.0 0.00 0.03 0.00 94 1011.0
20260906041004 73 191 0.0 0.0 0.00 0.03 0.00 94 1011.1
20260906040503 73 191 0.0 1.0 0.00 0.03 0.00 94 1011.3
20260906040003 73 191 0.0 0.0 0.00 0.03 0.00 94 1011.2
20260906035503 73 191 0.0 0.0 0.00 0.03 0.03 94 1011.1
20260906035004 73 191 0.0 0.0 0.00 0.03 0.03 94 1011.1
20260906034504 73 191 0.0 1.0 0.00 0.03 0.03 93 1011.1
20260906034004 73 196 1.0 2.0 0.00 0.03 0.03 93 1011.1
20260906033504 74 230 0.0 1.0 0.00 0.03 0.03 94 1011.3
20260906033004 74 230 0.0 1.0 0.00 0.03 0.03 94 1011.2
20260906032505 74 176 0.0 2.0 0.00 0.03 0.03 94 1011.3
20260906031004 74 140 1.0 2.0 0.00 0.03 0.03 94 1011.3
20260906030004 74 187 1.0 3.0 0.00 0.03 0.03 94 1011.2
20260906025504 74 145 2.0 3.0 0.00 0.03 0.03 94 1011.2
20260906025004 74 178 2.0 6.0 0.00 0.03 0.03 94 1011.0
20260906024503 74 187 3.0 6.0 0.00 0.03 0.03 92 1011.0
20260906024004 74 331 0.0 1.0 0.00 0.03 0.03 93 1011.0
20260906023504 74 331 0.0 0.0 0.00 0.03 0.03 93 1011.0
20260906023004 74 331 1.0 2.0 0.00 0.03 0.03 94 1011.0
20260906022504 74 306 0.0 0.0 0.00 0.03 0.03 93 1011.0
20260906021504 74 242 0.0 0.0 0.00 0.03 0.03 93 1010.9
20260906020504 75 242 0.0 0.0 0.00 0.03 0.03 92 1010.7
20260906020004 75 242 0.0 0.0 0.00 0.03 0.03 92 1010.6
20260906014504 75 242 0.0 0.0 0.00 0.03 0.03 94 1010.8
20260906014004 75 87 0.0 0.0 0.00 0.03 0.03 93 1010.8
20260906013504 75 87 0.0 0.0 0.00 0.03 0.03 92 1010.8
20260906013004 75 87 0.0 0.0 0.00 0.03 0.03 93 1010.7
20260906012504 75 87 0.0 1.0 0.00 0.03 0.03 93 1010.6
20260906012004 75 87 0.0 1.0 0.00 0.03 0.03 92 1010.5
20260906011503 75 87 0.0 1.0 0.00 0.03 0.03 92 1010.4
20260906011004 75 87 0.0 0.0 0.00 0.03 0.03 93 1010.4
20260906010504 75 87 0.0 1.0 0.00 0.03 0.03 93 1010.4
20260906010003 75 101 0.0 1.0 0.00 0.03 0.03 92 1010.5
20260906005503 75 101 1.0 3.0 0.00 0.03 0.03 92 1010.5
20260906005004 75 78 2.0 2.0 0.00 0.03 0.03 92 1010.4
20260906004504 75 78 0.0 0.0 0.00 0.03 0.03 91 1010.5
20260906004004 75 78 0.0 0.0 0.00 0.03 0.03 91 1010.5
20260906003504 75 78 0.0 1.0 0.00 0.03 0.03 91 1010.5
20260906003003 75 78 1.0 2.0 0.00 0.03 0.03 91 1010.5
20260906002503 76 44 0.0 0.0 0.00 0.03 0.03 90 1010.4
20260906002004 76 44 0.0 0.0 0.00 0.03 0.03 90 1010.2
20260906001504 76 44 0.0 0.0 0.00 0.03 0.03 89 1010.2
20260906001004 76 44 0.0 0.0 0.00 0.03 0.03 89 1010.0
20260906000504 76 44 0.0 0.0 0.00 0.03 0.03 89 1009.9
20260905235503 77 44 0.0 1.0 0.00 0.03 0.03 88 1009.8
20260905235004 77 44 0.0 3.0 0.00 0.03 0.03 88 1009.8
20260905234504 77 37 1.0 2.0 0.00 0.03 0.03 88 1009.7
20260905234004 78 249 0.0 1.0 0.00 0.03 0.03 89 1009.4
20260905233504 78 314 0.0 3.0 0.00 0.03 0.03 89 1009.4
20260905233004 78 345 0.0 2.0 0.00 0.03 0.03 89 1009.3
20260905232503 78 312 1.0 3.0 0.00 0.03 0.03 90 1009.4
20260905232004 78 314 1.0 2.0 0.00 0.03 0.03 89 1009.3
20260905231504 78 5 0.0 3.0 0.00 0.03 0.03 90 1009.3
20260905231004 79 11 1.0 2.0 0.00 0.03 0.03 89 1009.1
20260905230504 79 248 0.0 2.0 0.00 0.03 0.03 90 1008.8
20260905230004 78 333 0.0 2.0 0.00 0.03 0.03 90 1008.7
20260905225003 78 53 0.0 1.0 0.00 0.03 0.03 89 1008.5
20260905224504 78 53 1.0 2.0 0.00 0.03 0.03 89 1008.4
20260905224004 78 327 0.0 2.0 0.00 0.03 0.03 91 1008.4
20260905223504 78 36 1.0 2.0 0.00 0.03 0.03 90 1008.5
20260905223004 78 39 1.0 3.0 0.01 0.03 0.03 90 1008.5
20260905222503 78 297 1.0 3.0 0.01 0.03 0.03 91 1008.7
20260905222004 78 314 2.0 3.0 0.01 0.03 0.03 92 1008.9
20260905221504 78 353 0.0 0.0 0.01 0.03 0.03 91 1009.0
20260905221003 78 306 0.0 0.0 0.01 0.03 0.03 91 1009.0
20260905220503 78 306 0.0 0.0 0.02 0.03 0.03 90 1009.2
20260905220005 78 306 0.0 0.0 0.02 0.03 0.03 91 1009.4
20260905215503 78 270 0.0 0.0 0.02 0.03 0.03 91 1009.3
20260905214503 78 255 0.0 0.0 0.02 0.03 0.03 90 1009.4
20260905213504 78 156 0.0 0.0 0.02 0.03 0.03 88 1009.0
20260905213004 78 120 0.0 0.0 0.01 0.02 0.02 87 1009.0
20260905212504 79 129 0.0 1.0 0.01 0.02 0.02 86 1009.0
20260905212004 79 212 0.0 1.0 0.02 0.02 0.02 86 1009.0
20260905211503 79 212 0.0 3.0 0.02 0.02 0.02 84 1009.3
20260905211004 80 243 0.0 0.0 0.02 0.02 0.02 83 1009.4
20260905210504 80 246 0.0 0.0 0.01 0.01 0.01 84 1009.5
20260905210004 80 257 0.0 1.0 0.01 0.01 0.01 82 1009.4
20260905205503 80 257 1.0 2.0 0.01 0.01 0.01 81 1009.2
20260905205004 81 23 1.0 2.0 0.01 0.01 0.01 79 1009.0
20260905204504 81 37 0.0 3.0 0.01 0.01 0.01 80 1008.9
20260905204004 81 35 0.0 3.0 0.01 0.01 0.01 79 1008.9
20260905203003 83 284 1.0 3.0 0.01 0.01 0.01 75 1008.7
20260905202503 84 50 3.0 5.0 0.01 0.01 0.01 70 1008.8
20260905202004 86 328 2.0 12.0 0.00 0.00 0.00 67 1008.9
20260905201504 87 5 7.0 17.0 0.00 0.00 0.00 61 1009.2
20260905201004 88 346 7.0 17.0 0.00 0.00 0.00 60 1009.3
20260905200003 93 350 6.0 15.0 0.00 0.00 0.00 53 1008.6
20260905195503 96 339 3.0 13.0 0.00 0.00 0.00 53 1008.8
20260905195004 97 310 2.0 3.0 0.00 0.00 0.00 50 1008.5
20260905194504 98 349 2.0 3.0 0.00 0.00 0.00 48 1008.4
20260905194004 99 4 1.0 3.0 0.00 0.00 0.00 48 1008.5
20260905192003 99 249 2.0 3.0 0.00 0.00 0.00 49 1008.3
20260905191503 99 274 2.0 3.0 0.00 0.00 0.00 47 1008.3
20260905191004 100 188 1.0 5.0 0.00 0.00 0.00 47 1008.2
20260905190004 99 304 1.0 3.0 0.00 0.00 0.00 49 1008.2
20260905184504 100 54 1.0 8.0 0.00 0.00 0.00 46 1008.4
20260905184004 100 330 3.0 9.0 0.00 0.00 0.00 47 1008.4
20260905183503 100 54 1.0 2.0 0.00 0.00 0.00 47 1008.6
20260905183004 100 147 2.0 5.0 0.00 0.00 0.00 45 1008.7
20260905182504 99 181 2.0 5.0 0.00 0.00 0.00 48 1008.8
20260905182004 99 266 1.0 3.0 0.00 0.00 0.00 48 1008.9
20260905181504 99 322 2.0 3.0 0.00 0.00 0.00 47 1008.9
20260905181003 99 312 3.0 5.0 0.00 0.00 0.00 45 1009.0
20260905180003 99 208 3.0 8.0 0.00 0.00 0.00 48 1009.2
20260905175503 99 323 2.0 8.0 0.00 0.00 0.00 48 1009.4
20260905175004 98 333 3.0 8.0 0.00 0.00 0.00 48 1009.5
20260905174503 98 28 2.0 7.0 0.00 0.00 0.00 48 1009.6
20260905173504 98 153 2.0 8.0 0.00 0.00 0.00 49 1009.9
20260905173003 98 308 2.0 3.0 0.00 0.00 0.00 50 1010.0
20260905172503 98 264 2.0 5.0 0.00 0.00 0.00 49 1010.0
20260905172004 98 263 2.0 5.0 0.00 0.00 0.00 51 1010.1
20260905171503 98 0 1.0 5.0 0.00 0.00 0.00 51 1010.3
20260905171003 98 59 1.0 6.0 0.00 0.00 0.00 50 1010.4
20260905170503 98 233 2.0 5.0 0.00 0.00 0.00 53 1010.6
20260905170003 98 253 2.0 3.0 0.00 0.00 0.00 52 1010.6
20260905165503 97 139 2.0 5.0 0.00 0.00 0.00 54 1010.6
20260905164504 97 322 2.0 6.0 0.00 0.00 0.00 53 1010.7
20260905163504 96 0 2.0 3.0 0.00 0.00 0.00 54 1010.9
20260905163004 96 325 2.0 3.0 0.00 0.00 0.00 52 1010.8
20260905162503 96 51 2.0 7.0 0.00 0.00 0.00 54 1011.0
20260905162004 96 343 1.0 2.0 0.00 0.00 0.00 55 1011.1
20260905161504 96 357 2.0 5.0 0.00 0.00 0.00 56 1011.2
20260905161004 95 237 2.0 3.0 0.00 0.00 0.00 56 1011.2
20260905160504 95 240 2.0 5.0 0.00 0.00 0.00 58 1011.2
20260905155503 94 322 2.0 5.0 0.00 0.00 0.00 58 1011.4
20260905154504 94 316 2.0 5.0 0.00 0.00 0.00 59 1011.4
20260905154004 94 318 2.0 3.0 0.00 0.00 0.00 60 1011.6
20260905153504 93 229 1.0 3.0 0.00 0.00 0.00 63 1011.6
20260905153004 93 281 2.0 6.0 0.00 0.00 0.00 61 1011.7
20260905152504 93 211 2.0 5.0 0.00 0.00 0.00 62 1011.7
20260905152004 92 283 1.0 3.0 0.00 0.00 0.00 64 1011.7
20260905151504 91 302 1.0 3.0 0.00 0.00 0.00 63 1011.8
20260905151003 91 124 3.0 6.0 0.00 0.00 0.00 63 1011.8
20260905150504 91 344 2.0 3.0 0.00 0.00 0.00 64 1012.0
20260905150004 91 7 3.0 8.0 0.00 0.00 0.00 64 1011.9
20260905145004 91 309 2.0 5.0 0.00 0.00 0.00 66 1011.8
20260905144504 90 336 2.0 3.0 0.00 0.00 0.00 66 1011.9
20260905143504 90 337 2.0 5.0 0.00 0.00 0.00 66 1011.7
20260905143004 89 305 1.0 3.0 0.00 0.00 0.00 69 1011.8
20260905142504 89 217 1.0 3.0 0.00 0.00 0.00 69 1011.8
20260905142004 89 325 3.0 5.0 0.00 0.00 0.00 69 1011.9
20260905141503 88 265 2.0 3.0 0.00 0.00 0.00 71 1011.8
20260905141005 88 288 1.0 3.0 0.00 0.00 0.00 70 1011.7
20260905140504 88 101 2.0 5.0 0.00 0.00 0.00 71 1011.7
20260905140004 88 269 1.0 5.0 0.00 0.00 0.00 71 1011.8
20260905135504 88 206 1.0 5.0 0.00 0.00 0.00 72 1011.7
20260905135004 88 295 1.0 3.0 0.00 0.00 0.00 72 1011.7
20260905134503 87 162 1.0 3.0 0.00 0.00 0.00 73 1011.7
20260905134004 87 199 2.0 3.0 0.00 0.00 0.00 73 1011.8
20260905133503 87 236 1.0 3.0 0.00 0.00 0.00 75 1011.7
20260905133004 86 4 0.0 2.0 0.00 0.00 0.00 75 1011.8
20260905132504 85 265 1.0 3.0 0.00 0.00 0.00 77 1011.8
20260905131503 84 259 1.0 5.0 0.00 0.00 0.00 78 1011.9
20260905131004 84 284 1.0 3.0 0.00 0.00 0.00 78 1012.0
20260905130504 83 144 2.0 6.0 0.00 0.00 0.00 79 1011.9
20260905130004 83 7 1.0 3.0 0.00 0.00 0.00 80 1012.0
20260905125503 82 288 2.0 6.0 0.00 0.00 0.00 81 1012.1
20260905125003 82 303 3.0 6.0 0.00 0.00 0.00 81 1012.0
20260905124503 82 322 2.0 3.0 0.00 0.00 0.00 82 1012.1
20260905124004 82 247 2.0 3.0 0.00 0.00 0.00 82 1012.1
20260905123503 81 9 3.0 7.0 0.00 0.00 0.00 83 1012.1
20260905123003 81 248 1.0 5.0 0.00 0.00 0.00 83 1012.0
20260905122504 81 305 2.0 3.0 0.00 0.00 0.00 84 1011.9
20260905122003 80 295 1.0 3.0 0.00 0.00 0.00 86 1011.9
20260905121503 79 241 1.0 2.0 0.00 0.00 0.00 87 1011.8
20260905121003 79 290 0.0 1.0 0.00 0.00 0.00 88 1011.8
20260905120503 78 256 1.0 2.0 0.00 0.00 0.00 89 1011.8
20260905120004 78 321 1.0 2.0 0.00 0.00 0.00 90 1011.7
20260905115503 77 117 0.0 1.0 0.00 0.00 0.00 90 1011.7
20260905115004 77 117 1.0 2.0 0.00 0.00 0.00 91 1011.6
20260905114504 76 117 0.0 1.0 0.00 0.00 0.00 92 1011.5
20260905113004 75 117 0.0 1.0 0.00 0.00 0.00 93 1011.5